Time,TemperatureF,DewpointF,PressureIn,WindDirection,WindDirectionDegrees,WindSpeedMPH,WindSpeedGustMPH,Humidity,HourlyPrecipIn,Conditions,Clouds,dailyrainin,SoftwareType,DateUTC
2013-12-15 00:01:00,62.1,61.2,29.73,WSW,244,9.0,13.0,97,0.37,,,0.00,Wunderground v.1.15,2013-12-15 05:01:00,
2013-12-15 00:02:00,62.1,61.2,29.73,WSW,237,9.0,13.0,97,0.72,,,0.02,Wunderground v.1.15,2013-12-15 05:02:00,
2013-12-15 00:07:00,62.2,61.3,29.73,WSW,238,2.0,14.0,97,0.51,,,0.05,Wunderground v.1.15,2013-12-15 05:07:00,
2013-12-15 00:12:00,62.4,61.8,29.73,West,263,12.0,13.0,98,0.46,,,0.09,Wunderground v.1.15,2013-12-15 05:12:00,
2013-12-15 00:17:00,62.7,62.1,29.73,WSW,248,7.0,14.0,98,0.41,,,0.12,Wunderground v.1.15,2013-12-15 05:17:00,
2013-12-15 00:22:00,62.7,61.8,29.72,West,264,4.0,12.0,97,0.30,,,0.14,Wunderground v.1.15,2013-12-15 05:22:00,
2013-12-15 00:27:00,62.6,62.6,29.72,WSW,242,6.0,14.0,100,0.14,,,0.15,Wunderground v.1.15,2013-12-15 05:27:00,
2013-12-15 00:32:00,62.5,61.6,29.73,WSW,239,10.0,16.0,97,0.07,,,0.16,Wunderground v.1.15,2013-12-15 05:32:00,
2013-12-15 00:37:00,62.3,61.4,29.73,WSW,253,10.0,17.0,97,0.23,,,0.17,Wunderground v.1.15,2013-12-15 05:37:00,
2013-12-15 00:42:00,62.3,61.4,29.73,WSW,250,7.0,14.0,97,0.12,,,0.18,Wunderground v.1.15,2013-12-15 05:42:00,
2013-12-15 00:47:00,62.3,61.7,29.72,WSW,244,9.0,14.0,98,0.06,,,0.18,Wunderground v.1.15,2013-12-15 05:47:00,
2013-12-15 00:52:00,62.3,61.7,29.72,WSW,241,12.0,14.0,98,0.04,,,0.18,Wunderground v.1.15,2013-12-15 05:52:00,
2013-12-15 00:57:00,62.3,61.7,29.72,WSW,237,5.0,16.0,98,0.00,,,0.18,Wunderground v.1.15,2013-12-15 05:57:00,
2013-12-15 01:02:00,62.2,61.6,29.71,WSW,251,9.0,9.0,98,0.00,,,0.18,Wunderground v.1.15,2013-12-15 06:02:00,
2013-12-15 01:07:00,61.9,61.0,29.71,WSW,249,7.0,11.0,97,0.00,,,0.18,Wunderground v.1.15,2013-12-15 06:07:00,
2013-12-15 01:12:00,61.8,60.9,29.71,WSW,248,4.0,11.0,97,0.00,,,0.18,Wunderground v.1.15,2013-12-15 06:12:00,
2013-12-15 01:17:00,61.7,61.1,29.71,WSW,242,5.0,11.0,98,1.18,,,0.20,Wunderground v.1.15,2013-12-15 06:17:00,
2013-12-15 01:22:00,61.7,61.1,29.71,WSW,250,7.0,12.0,98,0.21,,,0.22,Wunderground v.1.15,2013-12-15 06:22:00,
2013-12-15 01:27:00,61.7,61.1,29.70,WSW,249,9.0,12.0,98,0.08,,,0.23,Wunderground v.1.15,2013-12-15 06:27:00,
2013-12-15 01:32:00,61.7,61.1,29.70,WSW,253,7.0,12.0,98,0.14,,,0.24,Wunderground v.1.15,2013-12-15 06:32:00,
2013-12-15 01:37:00,61.7,61.1,29.70,WSW,248,5.0,12.0,98,0.06,,,0.24,Wunderground v.1.15,2013-12-15 06:37:00,
2013-12-15 01:42:00,61.6,61.0,29.69,WSW,255,3.0,10.0,98,0.04,,,0.24,Wunderground v.1.15,2013-12-15 06:42:00,
2013-12-15 01:47:00,61.5,60.9,29.70,WSW,251,4.0,11.0,98,0.00,,,0.24,Wunderground v.1.15,2013-12-15 06:47:00,
2013-12-15 01:52:00,61.6,61.0,29.70,WSW,258,6.0,8.0,98,0.00,,,0.24,Wunderground v.1.15,2013-12-15 06:52:00,
2013-12-15 01:57:00,61.7,61.1,29.69,West,265,6.0,12.0,98,0.00,,,0.24,Wunderground v.1.15,2013-12-15 06:57:00,
2013-12-15 02:02:00,61.8,61.2,29.68,West,265,3.0,10.0,98,0.00,,,0.24,Wunderground v.1.15,2013-12-15 07:02:00,
2013-12-15 02:07:00,61.9,61.3,29.67,West,264,6.0,10.0,98,0.00,,,0.24,Wunderground v.1.15,2013-12-15 07:07:00,
2013-12-15 02:12:00,61.9,61.3,29.68,West,263,2.0,8.0,98,0.00,,,0.24,Wunderground v.1.15,2013-12-15 07:12:00,
2013-12-15 02:17:00,61.8,61.2,29.67,West,263,4.0,8.0,98,0.00,,,0.24,Wunderground v.1.15,2013-12-15 07:17:00,
2013-12-15 02:22:00,61.8,61.2,29.66,West,262,3.0,8.0,98,0.00,,,0.24,Wunderground v.1.15,2013-12-15 07:22:00,
2013-12-15 02:27:00,61.8,61.2,29.67,West,259,6.0,9.0,98,0.00,,,0.24,Wunderground v.1.15,2013-12-15 07:27:00,
2013-12-15 02:32:00,61.8,61.2,29.67,West,259,4.0,8.0,98,0.00,,,0.24,Wunderground v.1.15,2013-12-15 07:32:00,
2013-12-15 02:37:00,61.9,61.3,29.67,WSW,254,8.0,11.0,98,0.00,,,0.24,Wunderground v.1.15,2013-12-15 07:37:00,
2013-12-15 02:42:00,61.9,61.3,29.67,WSW,255,7.0,7.0,98,0.00,,,0.24,Wunderground v.1.15,2013-12-15 07:42:00,
2013-12-15 02:47:00,61.8,61.2,29.67,WSW,255,0.0,10.0,98,0.00,,,0.24,Wunderground v.1.15,2013-12-15 07:47:00,
2013-12-15 02:52:00,61.5,60.9,29.67,WSW,254,4.0,9.0,98,0.00,,,0.24,Wunderground v.1.15,2013-12-15 07:52:00,
2013-12-15 02:57:00,61.3,60.7,29.67,WSW,254,3.0,9.0,98,0.00,,,0.24,Wunderground v.1.15,2013-12-15 07:57:00,
2013-12-15 03:02:00,61.3,60.7,29.67,WSW,254,1.0,8.0,98,0.00,,,0.24,Wunderground v.1.15,2013-12-15 08:02:00,
2013-12-15 03:07:00,61.4,60.8,29.67,WSW,250,4.0,8.0,98,0.00,,,0.24,Wunderground v.1.15,2013-12-15 08:07:00,
2013-12-15 03:12:00,61.5,60.9,29.67,WSW,250,0.0,7.0,98,0.00,,,0.24,Wunderground v.1.15,2013-12-15 08:12:00,
2013-12-15 03:17:00,61.4,60.8,29.67,WSW,250,3.0,7.0,98,0.00,,,0.24,Wunderground v.1.15,2013-12-15 08:17:00,
2013-12-15 03:22:00,61.5,60.9,29.67,WSW,250,3.0,7.0,98,0.00,,,0.24,Wunderground v.1.15,2013-12-15 08:22:00,
2013-12-15 03:27:00,61.5,60.9,29.66,WSW,250,5.0,7.0,98,0.00,,,0.24,Wunderground v.1.15,2013-12-15 08:27:00,
2013-12-15 03:32:00,61.4,60.8,29.67,WSW,244,4.0,10.0,98,0.00,,,0.25,Wunderground v.1.15,2013-12-15 08:32:00,
2013-12-15 03:37:00,61.3,60.7,29.66,WSW,246,5.0,10.0,98,0.16,,,0.27,Wunderground v.1.15,2013-12-15 08:37:00,
2013-12-15 03:42:00,61.3,60.7,29.66,WSW,245,7.0,8.0,98,0.14,,,0.28,Wunderground v.1.15,2013-12-15 08:42:00,
2013-12-15 03:47:00,61.4,60.8,29.65,WSW,244,3.0,8.0,98,0.14,,,0.29,Wunderground v.1.15,2013-12-15 08:47:00,
2013-12-15 03:52:00,61.4,60.8,29.67,WSW,246,2.0,9.0,98,0.13,,,0.30,Wunderground v.1.15,2013-12-15 08:52:00,
2013-12-15 03:57:00,61.2,60.6,29.67,WSW,255,3.0,11.0,98,0.36,,,0.33,Wunderground v.1.15,2013-12-15 08:57:00,
2013-12-15 04:02:00,61.1,60.5,29.67,WSW,250,4.0,11.0,98,0.18,,,0.34,Wunderground v.1.15,2013-12-15 09:02:00,
2013-12-15 04:07:00,61.1,60.5,29.67,WSW,253,5.0,12.0,98,0.22,,,0.36,Wunderground v.1.15,2013-12-15 09:07:00,
2013-12-15 04:12:00,61.3,60.7,29.66,WSW,249,8.0,9.0,98,0.13,,,0.37,Wunderground v.1.15,2013-12-15 09:12:00,
2013-12-15 04:17:00,61.4,60.8,29.66,WSW,252,8.0,12.0,98,0.06,,,0.37,Wunderground v.1.15,2013-12-15 09:17:00,
2013-12-15 04:22:00,61.3,60.7,29.66,West,271,10.0,10.0,98,0.04,,,0.37,Wunderground v.1.15,2013-12-15 09:22:00,
2013-12-15 04:27:00,61.2,60.6,29.65,West,272,1.0,10.0,98,0.00,,,0.37,Wunderground v.1.15,2013-12-15 09:27:00,
2013-12-15 04:32:00,61.2,60.6,29.67,West,278,8.0,11.0,98,0.00,,,0.37,Wunderground v.1.15,2013-12-15 09:32:00,
2013-12-15 04:37:00,61.2,60.6,29.67,West,279,8.0,13.0,98,0.00,,,0.37,Wunderground v.1.15,2013-12-15 09:37:00,
2013-12-15 04:42:00,61.1,60.5,29.68,West,271,12.0,18.0,98,0.00,,,0.37,Wunderground v.1.15,2013-12-15 09:42:00,
2013-12-15 04:47:00,60.8,60.2,29.67,WNW,288,8.0,18.0,98,0.00,,,0.37,Wunderground v.1.15,2013-12-15 09:47:00,
2013-12-15 04:52:00,60.6,60.0,29.67,WNW,288,10.0,13.0,98,0.00,,,0.37,Wunderground v.1.15,2013-12-15 09:52:00,
2013-12-15 04:57:00,60.3,59.7,29.67,WNW,290,8.0,13.0,98,0.00,,,0.37,Wunderground v.1.15,2013-12-15 09:57:00,
2013-12-15 05:02:00,60.1,59.5,29.67,WNW,292,5.0,11.0,98,0.00,,,0.37,Wunderground v.1.15,2013-12-15 10:02:00,
2013-12-15 05:07:00,60.1,59.5,29.67,WNW,296,5.0,11.0,98,0.00,,,0.37,Wunderground v.1.15,2013-12-15 10:07:00,
2013-12-15 05:12:00,60.0,59.4,29.67,WNW,296,5.0,9.0,98,0.00,,,0.37,Wunderground v.1.15,2013-12-15 10:12:00,
2013-12-15 05:17:00,59.8,59.2,29.68,WNW,298,8.0,10.0,98,0.00,,,0.37,Wunderground v.1.15,2013-12-15 10:17:00,
2013-12-15 05:22:00,59.6,59.0,29.69,WNW,299,11.0,14.0,98,0.00,,,0.37,Wunderground v.1.15,2013-12-15 10:22:00,
2013-12-15 05:27:00,58.9,58.3,29.69,NNW,337,14.0,17.0,98,0.00,,,0.37,Wunderground v.1.15,2013-12-15 10:27:00,
2013-12-15 05:32:00,58.0,57.4,29.70,NW,325,10.0,14.0,98,0.00,,,0.37,Wunderground v.1.15,2013-12-15 10:32:00,
2013-12-15 05:37:00,57.5,56.9,29.70,NNW,337,14.0,17.0,98,0.00,,,0.37,Wunderground v.1.15,2013-12-15 10:37:00,
2013-12-15 05:42:00,57.1,56.5,29.70,NNW,342,14.0,16.0,98,0.00,,,0.37,Wunderground v.1.15,2013-12-15 10:42:00,
2013-12-15 05:47:00,56.6,56.0,29.70,NNW,342,13.0,17.0,98,0.00,,,0.37,Wunderground v.1.15,2013-12-15 10:47:00,
2013-12-15 05:52:00,56.4,55.8,29.71,NNW,342,10.0,16.0,98,0.00,,,0.38,Wunderground v.1.15,2013-12-15 10:52:00,
2013-12-15 05:57:00,56.2,55.6,29.71,NNW,345,13.0,17.0,98,0.00,,,0.38,Wunderground v.1.15,2013-12-15 10:57:00,
2013-12-15 06:02:00,55.9,55.3,29.71,NNW,332,12.0,16.0,98,0.00,,,0.38,Wunderground v.1.15,2013-12-15 11:02:00,
2013-12-15 06:07:00,55.8,55.2,29.71,NNW,337,13.0,16.0,98,0.00,,,0.38,Wunderground v.1.15,2013-12-15 11:07:00,
2013-12-15 06:12:00,55.7,55.1,29.71,NNW,336,9.0,12.0,98,0.00,,,0.38,Wunderground v.1.15,2013-12-15 11:12:00,
2013-12-15 06:17:00,55.8,55.2,29.72,NW,325,10.0,15.0,98,0.00,,,0.38,Wunderground v.1.15,2013-12-15 11:17:00,
2013-12-15 06:22:00,55.7,55.1,29.72,NW,318,8.0,13.0,98,0.00,,,0.38,Wunderground v.1.15,2013-12-15 11:22:00,
2013-12-15 06:27:00,55.7,55.1,29.72,NW,317,5.0,13.0,98,0.00,,,0.38,Wunderground v.1.15,2013-12-15 11:27:00,
2013-12-15 06:32:00,55.6,55.0,29.73,NW,311,9.0,12.0,98,0.00,,,0.38,Wunderground v.1.15,2013-12-15 11:32:00,
2013-12-15 06:37:00,55.4,54.8,29.73,NW,308,4.0,15.0,98,0.00,,,0.38,Wunderground v.1.15,2013-12-15 11:37:00,
2013-12-15 06:43:00,55.5,54.9,29.72,NW,307,3.0,8.0,98,0.00,,,0.38,Wunderground v.1.15,2013-12-15 11:43:00,
2013-12-15 06:48:00,55.6,55.0,29.72,NW,307,5.0,8.0,98,0.00,,,0.38,Wunderground v.1.15,2013-12-15 11:48:00,
2013-12-15 06:53:00,55.8,55.2,29.72,NW,307,2.0,8.0,98,0.00,,,0.38,Wunderground v.1.15,2013-12-15 11:53:00,
2013-12-15 06:58:00,56.1,55.5,29.73,NW,305,5.0,10.0,98,0.00,,,0.38,Wunderground v.1.15,2013-12-15 11:58:00,
2013-12-15 07:03:00,56.2,55.6,29.73,WNW,294,7.0,8.0,98,0.00,,,0.38,Wunderground v.1.15,2013-12-15 12:03:00,
2013-12-15 07:08:00,56.6,56.0,29.73,WNW,294,5.0,9.0,98,0.00,,,0.38,Wunderground v.1.15,2013-12-15 12:08:00,
2013-12-15 07:13:00,56.9,56.3,29.73,WNW,290,8.0,10.0,98,0.00,,,0.38,Wunderground v.1.15,2013-12-15 12:13:00,
2013-12-15 07:18:00,56.8,56.2,29.73,WNW,283,3.0,12.0,98,0.00,,,0.38,Wunderground v.1.15,2013-12-15 12:18:00,
2013-12-15 07:23:00,56.9,56.3,29.74,West,279,9.0,12.0,98,0.00,,,0.38,Wunderground v.1.15,2013-12-15 12:23:00,
2013-12-15 07:28:00,57.1,56.5,29.74,West,276,7.0,14.0,98,0.00,,,0.38,Wunderground v.1.15,2013-12-15 12:28:00,
2013-12-15 07:33:00,57.2,56.6,29.75,West,279,11.0,13.0,98,0.00,,,0.38,Wunderground v.1.15,2013-12-15 12:33:00,
2013-12-15 07:38:00,57.0,56.4,29.75,West,280,7.0,13.0,98,0.00,,,0.38,Wunderground v.1.15,2013-12-15 12:38:00,
2013-12-15 07:43:00,57.0,56.4,29.75,WNW,284,9.0,14.0,98,0.00,,,0.38,Wunderground v.1.15,2013-12-15 12:43:00,
2013-12-15 07:48:00,57.3,56.7,29.74,West,276,12.0,16.0,98,0.00,,,0.38,Wunderground v.1.15,2013-12-15 12:48:00,
2013-12-15 07:53:00,57.6,57.0,29.75,West,274,6.0,13.0,98,0.00,,,0.39,Wunderground v.1.15,2013-12-15 12:53:00,
2013-12-15 07:58:00,57.7,56.9,29.75,West,273,8.0,15.0,97,0.00,,,0.39,Wunderground v.1.15,2013-12-15 12:58:00,
2013-12-15 08:03:00,57.6,56.8,29.76,WNW,296,8.0,13.0,97,0.00,,,0.39,Wunderground v.1.15,2013-12-15 13:03:00,
2013-12-15 08:08:00,57.6,56.8,29.77,WNW,291,10.0,16.0,97,0.00,,,0.39,Wunderground v.1.15,2013-12-15 13:08:00,
2013-12-15 08:13:00,57.4,56.3,29.75,WNW,285,9.0,14.0,96,0.00,,,0.39,Wunderground v.1.15,2013-12-15 13:13:00,
2013-12-15 08:18:00,57.5,56.7,29.78,WNW,297,10.0,15.0,97,0.00,,,0.39,Wunderground v.1.15,2013-12-15 13:18:00,
2013-12-15 08:23:00,57.5,56.7,29.75,WNW,283,9.0,13.0,97,0.00,,,0.39,Wunderground v.1.15,2013-12-15 13:23:00,
2013-12-15 08:28:00,57.4,56.6,29.77,WNW,290,11.0,15.0,97,0.00,,,0.40,Wunderground v.1.15,2013-12-15 13:28:00,
2013-12-15 08:33:00,57.3,56.2,29.78,WNW,301,12.0,18.0,96,0.00,,,0.40,Wunderground v.1.15,2013-12-15 13:33:00,
2013-12-15 08:38:00,57.2,56.1,29.77,NW,315,13.0,22.0,96,0.00,,,0.40,Wunderground v.1.15,2013-12-15 13:38:00,
2013-12-15 08:43:00,57.2,55.8,29.75,West,267,10.0,17.0,95,0.00,,,0.40,Wunderground v.1.15,2013-12-15 13:43:00,
2013-12-15 08:48:00,57.2,55.8,29.74,West,266,12.0,17.0,95,0.00,,,0.40,Wunderground v.1.15,2013-12-15 13:48:00,
2013-12-15 08:53:00,57.1,55.7,29.74,West,273,12.0,13.0,95,0.00,,,0.40,Wunderground v.1.15,2013-12-15 13:53:00,
2013-12-15 08:58:00,57.2,55.8,29.74,WNW,284,13.0,17.0,95,0.00,,,0.40,Wunderground v.1.15,2013-12-15 13:58:00,
2013-12-15 09:03:00,57.3,55.9,29.77,West,274,10.0,18.0,95,0.00,,,0.40,Wunderground v.1.15,2013-12-15 14:03:00,
2013-12-15 09:08:00,57.4,56.0,29.78,West,280,16.0,21.0,95,0.00,,,0.40,Wunderground v.1.15,2013-12-15 14:08:00,
2013-12-15 09:13:00,57.5,55.8,29.77,West,273,2.0,20.0,94,0.00,,,0.40,Wunderground v.1.15,2013-12-15 14:13:00,
2013-12-15 09:18:00,57.5,55.8,29.79,WNW,288,16.0,20.0,94,0.00,,,0.40,Wunderground v.1.15,2013-12-15 14:18:00,
2013-12-15 09:23:00,57.6,55.9,29.80,WNW,288,11.0,22.0,94,0.00,,,0.40,Wunderground v.1.15,2013-12-15 14:23:00,
2013-12-15 09:28:00,57.5,55.8,29.80,West,281,9.0,22.0,94,0.00,,,0.40,Wunderground v.1.15,2013-12-15 14:28:00,
2013-12-15 09:33:00,57.4,55.4,29.79,West,277,12.0,21.0,93,0.00,,,0.40,Wunderground v.1.15,2013-12-15 14:33:00,
2013-12-15 09:38:00,57.3,55.3,29.80,WNW,285,16.0,22.0,93,0.00,,,0.40,Wunderground v.1.15,2013-12-15 14:38:00,
2013-12-15 09:43:00,57.5,55.5,29.79,WNW,285,14.0,19.0,93,0.00,,,0.40,Wunderground v.1.15,2013-12-15 14:43:00,
2013-12-15 09:48:00,57.4,55.1,29.79,West,277,17.0,27.0,92,0.00,,,0.40,Wunderground v.1.15,2013-12-15 14:48:00,
2013-12-15 09:53:00,57.5,55.2,29.78,WNW,290,12.0,17.0,92,0.00,,,0.40,Wunderground v.1.15,2013-12-15 14:53:00,
2013-12-15 09:58:00,57.5,55.2,29.77,WNW,284,8.0,18.0,92,0.00,,,0.40,Wunderground v.1.15,2013-12-15 14:58:00,
2013-12-15 10:03:00,57.3,54.7,29.75,WNW,286,9.0,15.0,91,0.00,,,0.40,Wunderground v.1.15,2013-12-15 15:03:00,
2013-12-15 10:08:00,57.2,54.9,29.77,NW,306,7.0,16.0,92,0.00,,,0.40,Wunderground v.1.15,2013-12-15 15:08:00,
2013-12-15 10:13:00,57.1,54.8,29.78,NW,317,16.0,19.0,92,0.00,,,0.40,Wunderground v.1.15,2013-12-15 15:13:00,
2013-12-15 10:18:00,56.8,54.2,29.79,NW,310,12.0,22.0,91,0.00,,,0.40,Wunderground v.1.15,2013-12-15 15:18:00,
2013-12-15 10:23:00,56.6,54.0,29.79,WNW,292,13.0,19.0,91,0.00,,,0.40,Wunderground v.1.15,2013-12-15 15:23:00,
2013-12-15 10:28:00,56.3,53.7,29.78,NW,319,10.0,22.0,91,0.00,,,0.40,Wunderground v.1.15,2013-12-15 15:28:00,
2013-12-15 10:33:00,56.1,53.5,29.79,NW,306,14.0,20.0,91,0.00,,,0.40,Wunderground v.1.15,2013-12-15 15:33:00,
2013-12-15 10:38:00,55.7,53.1,29.81,WNW,298,10.0,22.0,91,0.00,,,0.40,Wunderground v.1.15,2013-12-15 15:38:00,
2013-12-15 10:43:00,55.3,53.0,29.81,NNW,332,13.0,19.0,92,0.00,,,0.40,Wunderground v.1.15,2013-12-15 15:43:00,
2013-12-15 10:48:00,55.1,52.8,29.81,NNW,329,11.0,19.0,92,0.00,,,0.40,Wunderground v.1.15,2013-12-15 15:48:00,
2013-12-15 10:53:00,54.6,52.3,29.80,NW,309,16.0,18.0,92,0.00,,,0.40,Wunderground v.1.15,2013-12-15 15:53:00,
2013-12-15 10:58:00,54.4,52.4,29.80,NW,317,9.0,20.0,93,0.00,,,0.40,Wunderground v.1.15,2013-12-15 15:58:00,
2013-12-15 11:03:00,53.9,51.9,29.80,NW,311,17.0,21.0,93,0.00,,,0.40,Wunderground v.1.15,2013-12-15 16:03:00,
2013-12-15 11:08:00,53.7,51.7,29.80,NW,317,14.0,21.0,93,0.00,,,0.40,Wunderground v.1.15,2013-12-15 16:08:00,
2013-12-15 11:13:00,53.8,52.1,29.80,WNW,298,12.0,19.0,94,0.00,,,0.40,Wunderground v.1.15,2013-12-15 16:13:00,
2013-12-15 11:18:00,54.1,52.4,29.76,NW,317,13.0,19.0,94,0.00,,,0.40,Wunderground v.1.15,2013-12-15 16:18:00,
2013-12-15 11:23:00,54.0,52.0,29.78,NNW,329,15.0,17.0,93,0.00,,,0.40,Wunderground v.1.15,2013-12-15 16:23:00,
2013-12-15 11:28:00,53.7,51.7,29.77,NNW,333,16.0,20.0,93,0.00,,,0.40,Wunderground v.1.15,2013-12-15 16:28:00,
2013-12-15 11:33:00,53.3,51.3,29.76,NNW,338,9.0,15.0,93,0.00,,,0.40,Wunderground v.1.15,2013-12-15 16:33:00,
2013-12-15 11:38:00,53.2,51.2,29.76,NW,325,9.0,19.0,93,0.00,,,0.40,Wunderground v.1.15,2013-12-15 16:38:00,
2013-12-15 11:43:00,53.1,51.1,29.80,NW,324,9.0,22.0,93,0.00,,,0.40,Wunderground v.1.15,2013-12-15 16:43:00,
2013-12-15 11:48:00,53.0,51.0,29.79,NW,323,10.0,22.0,93,0.00,,,0.40,Wunderground v.1.15,2013-12-15 16:48:00,
2013-12-15 11:53:00,52.9,50.9,29.79,NW,319,9.0,15.0,93,0.00,,,0.40,Wunderground v.1.15,2013-12-15 16:53:00,
2013-12-15 11:58:00,53.0,51.0,29.78,NW,316,11.0,17.0,93,0.00,,,0.40,Wunderground v.1.15,2013-12-15 16:58:00,
2013-12-15 12:03:00,52.9,50.9,29.78,NW,308,9.0,18.0,93,0.00,,,0.40,Wunderground v.1.15,2013-12-15 17:03:00,
2013-12-15 12:08:00,52.9,50.9,29.77,NW,315,6.0,18.0,93,0.00,,,0.40,Wunderground v.1.15,2013-12-15 17:08:00,
2013-12-15 12:13:00,52.7,50.7,29.78,NW,312,10.0,16.0,93,0.00,,,0.40,Wunderground v.1.15,2013-12-15 17:13:00,
2013-12-15 12:18:00,52.7,50.7,29.78,NW,314,12.0,16.0,93,0.00,,,0.40,Wunderground v.1.15,2013-12-15 17:18:00,
2013-12-15 12:23:00,52.6,50.6,29.77,NNW,327,12.0,15.0,93,0.00,,,0.40,Wunderground v.1.15,2013-12-15 17:23:00,
2013-12-15 12:28:00,52.6,50.6,29.77,NNW,330,10.0,15.0,93,0.00,,,0.40,Wunderground v.1.15,2013-12-15 17:28:00,
2013-12-15 12:33:00,52.5,50.5,29.78,NW,314,8.0,12.0,93,0.00,,,0.40,Wunderground v.1.15,2013-12-15 17:33:00,
2013-12-15 12:38:00,52.6,50.6,29.78,NNW,328,11.0,13.0,93,0.00,,,0.40,Wunderground v.1.15,2013-12-15 17:38:00,
2013-12-15 12:43:00,52.5,50.5,29.78,NNW,327,6.0,12.0,93,0.00,,,0.40,Wunderground v.1.15,2013-12-15 17:43:00,
2013-12-15 12:48:00,52.6,50.6,29.77,NW,316,9.0,14.0,93,0.00,,,0.40,Wunderground v.1.15,2013-12-15 17:48:00,
2013-12-15 12:53:00,52.7,50.7,29.78,NNW,336,13.0,13.0,93,0.00,,,0.40,Wunderground v.1.15,2013-12-15 17:53:00,
2013-12-15 12:58:00,52.7,50.7,29.78,NW,324,9.0,14.0,93,0.00,,,0.40,Wunderground v.1.15,2013-12-15 17:58:00,
2013-12-15 13:03:00,52.6,50.6,29.78,NNW,336,6.0,14.0,93,0.00,,,0.40,Wunderground v.1.15,2013-12-15 18:03:00,
2013-12-15 13:08:00,52.6,50.3,29.78,NNW,334,12.0,14.0,92,0.00,,,0.40,Wunderground v.1.15,2013-12-15 18:08:00,
2013-12-15 13:13:00,52.5,50.2,29.79,NNW,334,15.0,15.0,92,0.00,,,0.40,Wunderground v.1.15,2013-12-15 18:13:00,
2013-12-15 13:18:00,52.4,50.1,29.79,NNW,331,8.0,15.0,92,0.00,,,0.40,Wunderground v.1.15,2013-12-15 18:18:00,
2013-12-15 13:23:00,52.3,49.8,29.80,NNW,336,6.0,15.0,91,0.00,,,0.40,Wunderground v.1.15,2013-12-15 18:23:00,
2013-12-15 13:28:00,52.2,49.4,29.80,NNW,333,13.0,16.0,90,0.00,,,0.40,Wunderground v.1.15,2013-12-15 18:28:00,
2013-12-15 13:33:00,52.2,49.4,29.80,NNW,336,9.0,15.0,90,0.00,,,0.40,Wunderground v.1.15,2013-12-15 18:33:00,
2013-12-15 13:38:00,52.1,49.3,29.80,NNW,336,10.0,15.0,90,0.00,,,0.40,Wunderground v.1.15,2013-12-15 18:38:00,
2013-12-15 13:43:00,52.1,49.3,29.80,NNW,336,9.0,14.0,90,0.00,,,0.40,Wunderground v.1.15,2013-12-15 18:43:00,
2013-12-15 13:48:00,51.9,48.8,29.80,NW,324,11.0,16.0,89,0.00,,,0.40,Wunderground v.1.15,2013-12-15 18:48:00,
2013-12-15 13:53:00,51.8,48.7,29.80,NW,325,6.0,14.0,89,0.00,,,0.40,Wunderground v.1.15,2013-12-15 18:53:00,
2013-12-15 13:58:00,51.8,48.7,29.80,NW,326,9.0,14.0,89,0.00,,,0.40,Wunderground v.1.15,2013-12-15 18:58:00,
2013-12-15 14:03:00,51.7,48.6,29.81,NW,318,6.0,13.0,89,0.00,,,0.40,Wunderground v.1.15,2013-12-15 19:03:00,
2013-12-15 14:08:00,51.7,48.6,29.81,NW,311,9.0,13.0,89,0.00,,,0.40,Wunderground v.1.15,2013-12-15 19:08:00,
2013-12-15 14:13:00,51.7,48.6,29.82,NW,306,9.0,12.0,89,0.00,,,0.40,Wunderground v.1.15,2013-12-15 19:13:00,
2013-12-15 14:18:00,51.7,48.6,29.82,NW,309,7.0,12.0,89,0.00,,,0.40,Wunderground v.1.15,2013-12-15 19:18:00,
2013-12-15 14:23:00,51.8,48.7,29.82,NW,311,6.0,13.0,89,0.00,,,0.40,Wunderground v.1.15,2013-12-15 19:23:00,
2013-12-15 14:28:00,52.0,48.9,29.82,NW,311,9.0,13.0,89,0.00,,,0.40,Wunderground v.1.15,2013-12-15 19:28:00,
2013-12-15 14:34:00,52.0,48.6,29.82,NW,310,7.0,12.0,88,0.00,,,0.40,Wunderground v.1.15,2013-12-15 19:34:00,
2013-12-15 14:39:00,52.1,48.7,29.82,NW,314,3.0,12.0,88,0.00,,,0.40,Wunderground v.1.15,2013-12-15 19:39:00,
2013-12-15 14:44:00,52.0,48.3,29.81,NW,315,8.0,10.0,87,0.00,,,0.40,Wunderground v.1.15,2013-12-15 19:44:00,
2013-12-15 14:47:00,52.1,48.3,29.81,NW,315,3.0,10.0,87,0.00,,,0.40,Wunderground v.1.15,2013-12-15 19:47:00,
2013-12-15 14:52:00,52.1,48.0,29.82,NW,322,8.0,10.0,86,0.00,,,0.40,Wunderground v.1.15,2013-12-15 19:52:00,
2013-12-15 14:57:00,52.1,48.0,29.81,NW,322,4.0,10.0,86,0.00,,,0.40,Wunderground v.1.15,2013-12-15 19:57:00,
2013-12-15 15:02:00,52.1,48.0,29.81,NW,322,5.0,8.0,86,0.00,,,0.40,Wunderground v.1.15,2013-12-15 20:02:00,
2013-12-15 15:07:00,52.0,47.9,29.82,NNW,328,6.0,10.0,86,0.00,,,0.40,Wunderground v.1.15,2013-12-15 20:07:00,
2013-12-15 15:12:00,52.0,48.3,29.81,NNW,328,3.0,6.0,87,0.00,,,0.40,Wunderground v.1.15,2013-12-15 20:12:00,
2013-12-15 15:17:00,51.9,48.2,29.81,NNW,335,6.0,9.0,87,0.00,,,0.40,Wunderground v.1.15,2013-12-15 20:17:00,
2013-12-15 15:22:00,51.9,48.2,29.82,NNW,339,6.0,9.0,87,0.00,,,0.40,Wunderground v.1.15,2013-12-15 20:22:00,
2013-12-15 15:27:00,51.8,48.1,29.81,NNW,331,6.0,10.0,87,0.00,,,0.40,Wunderground v.1.15,2013-12-15 20:27:00,
2013-12-15 15:32:00,51.8,48.1,29.81,NNW,345,6.0,10.0,87,0.00,,,0.40,Wunderground v.1.15,2013-12-15 20:32:00,
2013-12-15 15:37:00,51.7,48.0,29.82,NNW,342,4.0,10.0,87,0.00,,,0.40,Wunderground v.1.15,2013-12-15 20:37:00,
2013-12-15 15:42:00,51.7,48.0,29.82,NNW,340,3.0,8.0,87,0.00,,,0.40,Wunderground v.1.15,2013-12-15 20:42:00,
2013-12-15 15:47:00,51.6,47.9,29.82,NNW,338,8.0,9.0,87,0.00,,,0.40,Wunderground v.1.15,2013-12-15 20:47:00,
2013-12-15 15:52:00,51.5,47.8,29.82,NNW,334,6.0,10.0,87,0.00,,,0.40,Wunderground v.1.15,2013-12-15 20:52:00,
2013-12-15 15:57:00,51.6,47.9,29.82,NNW,336,6.0,10.0,87,0.00,,,0.40,Wunderground v.1.15,2013-12-15 20:57:00,
2013-12-15 16:02:00,51.6,47.9,29.83,NNW,338,8.0,10.0,87,0.00,,,0.40,Wunderground v.1.15,2013-12-15 21:02:00,
2013-12-15 16:07:00,51.6,48.2,29.83,NNW,340,4.0,10.0,88,0.00,,,0.40,Wunderground v.1.15,2013-12-15 21:07:00,
2013-12-15 16:12:00,51.6,48.2,29.84,NNW,342,6.0,9.0,88,0.00,,,0.40,Wunderground v.1.15,2013-12-15 21:12:00,
2013-12-15 16:17:00,51.5,48.1,29.84,NNW,339,6.0,11.0,88,0.00,,,0.40,Wunderground v.1.15,2013-12-15 21:17:00,
2013-12-15 16:22:00,51.5,48.1,29.84,NNW,337,5.0,9.0,88,0.00,,,0.40,Wunderground v.1.15,2013-12-15 21:22:00,
2013-12-15 16:27:00,51.6,48.2,29.84,NNW,339,8.0,12.0,88,0.00,,,0.40,Wunderground v.1.15,2013-12-15 21:27:00,
2013-12-15 16:32:00,51.5,47.8,29.85,NNW,338,9.0,10.0,87,0.00,,,0.40,Wunderground v.1.15,2013-12-15 21:32:00,
2013-12-15 16:37:00,51.5,47.8,29.85,NNW,339,8.0,11.0,87,0.00,,,0.40,Wunderground v.1.15,2013-12-15 21:37:00,
2013-12-15 16:42:00,51.4,47.7,29.85,NNW,338,4.0,9.0,87,0.00,,,0.40,Wunderground v.1.15,2013-12-15 21:42:00,
2013-12-15 16:47:00,51.4,47.7,29.86,NNW,336,6.0,12.0,87,0.00,,,0.40,Wunderground v.1.15,2013-12-15 21:47:00,
2013-12-15 16:52:00,51.4,47.4,29.86,NNW,334,9.0,12.0,86,0.00,,,0.40,Wunderground v.1.15,2013-12-15 21:52:00,
2013-12-15 16:57:00,51.5,47.8,29.85,NNW,334,6.0,12.0,87,0.00,,,0.40,Wunderground v.1.15,2013-12-15 21:57:00,
2013-12-15 17:02:00,51.6,47.9,29.86,NNW,338,5.0,9.0,87,0.00,,,0.40,Wunderground v.1.15,2013-12-15 22:02:00,
2013-12-15 17:07:00,51.6,47.9,29.86,NNW,336,10.0,11.0,87,0.00,,,0.40,Wunderground v.1.15,2013-12-15 22:07:00,
2013-12-15 17:12:00,51.6,47.9,29.86,NNW,338,9.0,11.0,87,0.00,,,0.40,Wunderground v.1.15,2013-12-15 22:12:00,
2013-12-15 17:17:00,51.6,47.9,29.86,NNW,343,9.0,11.0,87,0.00,,,0.40,Wunderground v.1.15,2013-12-15 22:17:00,
2013-12-15 17:22:00,51.5,47.8,29.86,NNW,338,8.0,9.0,87,0.00,,,0.40,Wunderground v.1.15,2013-12-15 22:22:00,
2013-12-15 17:27:00,51.6,47.9,29.87,NNW,335,5.0,10.0,87,0.00,,,0.40,Wunderground v.1.15,2013-12-15 22:27:00,
2013-12-15 17:32:00,51.6,48.2,29.88,NNW,331,6.0,8.0,88,0.00,,,0.40,Wunderground v.1.15,2013-12-15 22:32:00,
2013-12-15 17:37:00,51.6,48.2,29.88,NNW,333,6.0,10.0,88,0.00,,,0.40,Wunderground v.1.15,2013-12-15 22:37:00,
2013-12-15 17:42:00,51.6,48.2,29.88,North,349,8.0,14.0,88,0.00,,,0.40,Wunderground v.1.15,2013-12-15 22:42:00,
2013-12-15 17:47:00,51.7,48.0,29.88,NNW,331,10.0,17.0,87,0.00,,,0.40,Wunderground v.1.15,2013-12-15 22:47:00,
2013-12-15 17:52:00,51.7,47.6,29.88,NNW,336,11.0,14.0,86,0.00,,,0.40,Wunderground v.1.15,2013-12-15 22:52:00,
2013-12-15 17:57:00,51.9,47.8,29.88,NNW,330,8.0,15.0,86,0.00,,,0.40,Wunderground v.1.15,2013-12-15 22:57:00,
2013-12-15 18:02:00,51.9,47.8,29.89,NNW,339,11.0,14.0,86,0.00,,,0.40,Wunderground v.1.15,2013-12-15 23:02:00,
2013-12-15 18:07:00,51.9,47.5,29.89,NNW,345,12.0,17.0,85,0.00,,,0.40,Wunderground v.1.15,2013-12-15 23:07:00,
2013-12-15 18:12:00,51.9,47.5,29.89,NNW,335,10.0,15.0,85,0.00,,,0.40,Wunderground v.1.15,2013-12-15 23:12:00,
2013-12-15 18:17:00,51.9,47.8,29.90,NNW,342,9.0,15.0,86,0.00,,,0.40,Wunderground v.1.15,2013-12-15 23:17:00,
2013-12-15 18:22:00,51.9,47.8,29.90,NNW,340,8.0,11.0,86,0.00,,,0.40,Wunderground v.1.15,2013-12-15 23:22:00,
2013-12-15 18:27:00,51.7,47.6,29.90,NNW,333,9.0,13.0,86,0.00,,,0.40,Wunderground v.1.15,2013-12-15 23:27:00,
2013-12-15 18:32:00,51.7,48.0,29.90,NNW,341,9.0,12.0,87,0.00,,,0.40,Wunderground v.1.15,2013-12-15 23:32:00,
2013-12-15 18:37:00,51.6,47.9,29.91,NNW,346,8.0,13.0,87,0.00,,,0.40,Wunderground v.1.15,2013-12-15 23:37:00,
2013-12-15 18:42:00,51.5,47.8,29.91,NNW,348,6.0,12.0,87,0.00,,,0.40,Wunderground v.1.15,2013-12-15 23:42:00,
2013-12-15 18:47:00,51.4,47.7,29.91,NNW,342,9.0,13.0,87,0.00,,,0.40,Wunderground v.1.15,2013-12-15 23:47:00,
2013-12-15 18:52:00,51.4,47.7,29.92,NNW,342,9.0,11.0,87,0.00,,,0.40,Wunderground v.1.15,2013-12-15 23:52:00,
2013-12-15 18:57:00,51.4,48.0,29.92,NNW,342,6.0,11.0,88,0.00,,,0.40,Wunderground v.1.15,2013-12-15 23:57:00,
2013-12-15 19:02:00,51.3,47.9,29.92,NNW,339,6.0,11.0,88,0.00,,,0.40,Wunderground v.1.15,2013-12-16 00:02:00,
2013-12-15 19:07:00,51.2,47.8,29.92,NNW,340,9.0,11.0,88,0.00,,,0.40,Wunderground v.1.15,2013-12-16 00:07:00,
2013-12-15 19:12:00,51.2,47.8,29.92,NNW,338,6.0,11.0,88,0.00,,,0.40,Wunderground v.1.15,2013-12-16 00:12:00,
2013-12-15 19:17:00,51.1,47.4,29.92,NNW,331,6.0,12.0,87,0.00,,,0.40,Wunderground v.1.15,2013-12-16 00:17:00,
2013-12-15 19:22:00,51.1,47.4,29.93,NNW,332,10.0,11.0,87,0.00,,,0.40,Wunderground v.1.15,2013-12-16 00:22:00,
2013-12-15 19:27:00,51.2,47.5,29.93,NNW,329,8.0,13.0,87,0.00,,,0.40,Wunderground v.1.15,2013-12-16 00:27:00,
2013-12-15 19:32:00,51.2,47.5,29.93,NNW,328,5.0,10.0,87,0.00,,,0.40,Wunderground v.1.15,2013-12-16 00:32:00,
2013-12-15 19:37:00,51.1,47.4,29.93,NW,322,6.0,11.0,87,0.00,,,0.40,Wunderground v.1.15,2013-12-16 00:37:00,
2013-12-15 19:42:00,51.0,47.0,29.94,NNW,328,6.0,11.0,86,0.00,,,0.40,Wunderground v.1.15,2013-12-16 00:42:00,
2013-12-15 19:47:00,51.1,47.1,29.94,NW,325,8.0,13.0,86,0.00,,,0.40,Wunderground v.1.15,2013-12-16 00:47:00,
2013-12-15 19:52:00,51.1,46.7,29.95,NNW,328,5.0,12.0,85,0.00,,,0.40,Wunderground v.1.15,2013-12-16 00:52:00,
2013-12-15 19:57:00,51.1,46.7,29.94,NW,318,3.0,13.0,85,0.00,,,0.40,Wunderground v.1.15,2013-12-16 00:57:00,
2013-12-15 20:02:00,51.1,46.7,29.94,NNW,329,6.0,12.0,85,0.00,,,0.40,Wunderground v.1.15,2013-12-16 01:02:00,
2013-12-15 20:07:00,51.1,46.7,29.94,NW,315,6.0,12.0,85,0.00,,,0.40,Wunderground v.1.15,2013-12-16 01:07:00,
2013-12-15 20:13:00,51.0,46.6,29.95,NW,305,12.0,13.0,85,0.00,,,0.40,Wunderground v.1.15,2013-12-16 01:13:00,
2013-12-15 20:18:00,51.0,46.3,29.95,NW,310,13.0,14.0,84,0.00,,,0.40,Wunderground v.1.15,2013-12-16 01:18:00,
2013-12-15 20:23:00,51.0,46.6,29.95,NW,309,5.0,10.0,85,0.00,,,0.40,Wunderground v.1.15,2013-12-16 01:23:00,
2013-12-15 20:28:00,51.0,46.6,29.95,NW,315,9.0,12.0,85,0.00,,,0.40,Wunderground v.1.15,2013-12-16 01:28:00,
2013-12-15 20:33:00,51.0,46.6,29.95,NW,309,8.0,9.0,85,0.00,,,0.40,Wunderground v.1.15,2013-12-16 01:33:00,
2013-12-15 20:38:00,50.9,46.6,29.96,NW,311,5.0,11.0,85,0.00,,,0.40,Wunderground v.1.15,2013-12-16 01:38:00,
2013-12-15 20:43:00,51.0,47.0,29.96,NW,307,8.0,9.0,86,0.00,,,0.40,Wunderground v.1.15,2013-12-16 01:43:00,
2013-12-15 20:48:00,50.8,46.5,29.96,NW,307,4.0,12.0,85,0.00,,,0.40,Wunderground v.1.15,2013-12-16 01:48:00,
2013-12-15 20:53:00,50.8,46.8,29.96,NW,307,4.0,12.0,86,0.00,,,0.40,Wunderground v.1.15,2013-12-16 01:53:00,
2013-12-15 20:58:00,50.8,46.8,29.96,NW,304,7.0,12.0,86,0.00,,,0.40,Wunderground v.1.15,2013-12-16 01:58:00,
2013-12-15 21:03:00,50.8,46.8,29.97,NW,307,3.0,10.0,86,0.00,,,0.40,Wunderground v.1.15,2013-12-16 02:03:00,
2013-12-15 21:08:00,50.8,46.8,29.97,NW,309,5.0,12.0,86,0.00,,,0.40,Wunderground v.1.15,2013-12-16 02:08:00,
2013-12-15 21:13:00,50.8,46.8,29.97,NW,315,3.0,13.0,86,0.00,,,0.40,Wunderground v.1.15,2013-12-16 02:13:00,
2013-12-15 21:18:00,50.8,46.8,29.97,NW,306,10.0,13.0,86,0.00,,,0.40,Wunderground v.1.15,2013-12-16 02:18:00,
2013-12-15 21:23:00,50.8,46.8,29.98,NW,309,4.0,11.0,86,0.00,,,0.40,Wunderground v.1.15,2013-12-16 02:23:00,
2013-12-15 21:28:00,50.8,46.8,29.98,NW,306,7.0,15.0,86,0.00,,,0.40,Wunderground v.1.15,2013-12-16 02:28:00,
2013-12-15 21:33:00,50.8,46.8,29.98,NW,323,9.0,13.0,86,0.00,,,0.40,Wunderground v.1.15,2013-12-16 02:33:00,
2013-12-15 21:38:00,50.8,46.8,29.98,NNW,333,10.0,13.0,86,0.00,,,0.40,Wunderground v.1.15,2013-12-16 02:38:00,
2013-12-15 21:43:00,50.7,46.4,29.98,NNW,327,10.0,15.0,85,0.00,,,0.40,Wunderground v.1.15,2013-12-16 02:43:00,
2013-12-15 21:48:00,50.6,46.3,29.98,NNW,338,12.0,16.0,85,0.00,,,0.40,Wunderground v.1.15,2013-12-16 02:48:00,
2013-12-15 21:53:00,50.4,46.1,29.98,NNW,343,12.0,14.0,85,0.00,,,0.40,Wunderground v.1.15,2013-12-16 02:53:00,
2013-12-15 21:58:00,50.4,46.1,29.98,NNW,342,10.0,14.0,85,0.00,,,0.40,Wunderground v.1.15,2013-12-16 02:58:00,
2013-12-15 22:03:00,50.3,46.0,29.98,NNW,348,11.0,13.0,85,0.00,,,0.40,Wunderground v.1.15,2013-12-16 03:03:00,
2013-12-15 22:08:00,50.2,45.6,29.99,NNW,348,13.0,13.0,84,0.00,,,0.40,Wunderground v.1.15,2013-12-16 03:08:00,
2013-12-15 22:13:00,50.4,46.1,29.99,NNW,345,13.0,14.0,85,0.00,,,0.40,Wunderground v.1.15,2013-12-16 03:13:00,
2013-12-15 22:18:00,50.3,45.6,29.99,NNW,339,10.0,15.0,84,0.00,,,0.40,Wunderground v.1.15,2013-12-16 03:18:00,
2013-12-15 22:23:00,50.3,46.0,30.00,North,350,12.0,14.0,85,0.00,,,0.40,Wunderground v.1.15,2013-12-16 03:23:00,
2013-12-15 22:28:00,50.2,45.2,30.00,NNW,333,11.0,16.0,83,0.00,,,0.40,Wunderground v.1.15,2013-12-16 03:28:00,
2013-12-15 22:33:00,50.2,44.6,30.00,North,351,13.0,16.0,81,0.00,,,0.40,Wunderground v.1.15,2013-12-16 03:33:00,
2013-12-15 22:38:00,50.2,43.3,30.00,NNW,347,11.0,17.0,77,0.00,,,0.40,Wunderground v.1.15,2013-12-16 03:38:00,
2013-12-15 22:39:00,50.2,43.3,30.00,North,350,14.0,17.0,77,0.00,,,0.40,Wunderground v.1.15,2013-12-16 03:39:00,
2013-12-15 22:44:00,50.2,42.9,30.00,North,350,14.0,17.0,76,0.00,,,0.40,Wunderground v.1.15,2013-12-16 03:44:00,
2013-12-15 22:49:00,50.1,42.1,30.00,North,355,13.0,20.0,74,0.00,,,0.40,Wunderground v.1.15,2013-12-16 03:49:00,
2013-12-15 22:54:00,49.9,42.3,30.00,NNW,343,13.0,17.0,75,0.00,,,0.40,Wunderground v.1.15,2013-12-16 03:54:00,
2013-12-15 22:59:00,49.9,42.3,30.01,NNW,345,15.0,19.0,75,0.00,,,0.40,Wunderground v.1.15,2013-12-16 03:59:00,
2013-12-15 23:04:00,49.7,42.1,30.01,NNW,342,12.0,18.0,75,0.00,,,0.40,Wunderground v.1.15,2013-12-16 04:04:00,
2013-12-15 23:09:00,49.7,42.8,30.01,NNW,327,14.0,18.0,77,0.00,,,0.40,Wunderground v.1.15,2013-12-16 04:09:00,
2013-12-15 23:14:00,49.2,41.6,30.01,NNW,338,19.0,22.0,75,0.00,,,0.40,Wunderground v.1.15,2013-12-16 04:14:00,
2013-12-15 23:19:00,49.0,40.7,30.01,North,350,19.0,22.0,73,0.00,,,0.40,Wunderground v.1.15,2013-12-16 04:19:00,
2013-12-15 23:24:00,48.8,39.8,30.01,NNW,342,13.0,21.0,71,0.00,,,0.40,Wunderground v.1.15,2013-12-16 04:24:00,
2013-12-15 23:29:00,48.8,39.8,30.01,NNW,346,12.0,21.0,71,0.00,,,0.40,Wunderground v.1.15,2013-12-16 04:29:00,
2013-12-15 23:34:00,48.8,40.2,30.01,NNW,347,15.0,21.0,72,0.00,,,0.40,Wunderground v.1.15,2013-12-16 04:34:00,
2013-12-15 23:39:00,48.8,39.4,30.01,NNW,348,14.0,21.0,70,0.00,,,0.40,Wunderground v.1.15,2013-12-16 04:39:00,
2013-12-15 23:44:00,48.6,38.5,30.01,NNW,338,15.0,21.0,68,0.00,,,0.40,Wunderground v.1.15,2013-12-16 04:44:00,
2013-12-15 23:49:00,48.5,38.4,30.02,NNW,341,20.0,21.0,68,0.00,,,0.40,Wunderground v.1.15,2013-12-16 04:49:00,
2013-12-15 23:54:00,48.3,37.5,30.02,North,350,18.0,23.0,66,0.00,,,0.40,Wunderground v.1.15,2013-12-16 04:54:00,
2013-12-15 23:59:00,48.2,37.8,30.02,North,355,19.0,23.0,67,0.00,,,0.40,Wunderground v.1.15,2013-12-16 04:59:00,